Regional Weather Roundup
Issued by NWS

Home | Current Version | Previous Version | Graphics & Text | Print | Product List | Glossary On
Versions: 1 2 3 4 5 6 7 8 9 10 11 12 13 14 15 16 17 18 19 20 21 22 23 24 25 26 27 28 29 30 31 32 33 34 35 36 37 38 39 40 41 42 43 44 45 46 47 48 49 50
000
ASUS43 KFSD 221902
RWRSD

WEATHER ROUNDUP FOR SOUTH DAKOTA
NATIONAL WEATHER SERVICE SIOUX FALLS SD
200 PM CDT WED OCT 22 2014

NOTE: "FAIR" INDICATES FEW OR NO CLOUDS BELOW 12,000 FEET WITH NO
SIGNIFICANT WEATHER AND/OR OBSTRUCTIONS TO VISIBILITY.


SDZ001>005-009-010-012>017-222000-
NORTHWEST AND NORTH CENTRAL SOUTH DAKOTA

CITY           SKY/WX    TMP DP  RH WIND       PRES   REMARKS
FAITH            N/A     63  35  35 NW20G28   29.94F
MOBRIDGE       CLOUDY    59  47  64 W12       29.89F
$$

SDZ012>016-024>037-041>051-057-063-072>074-222000-
SOUTHWEST AND SOUTH CENTRAL SOUTH DAKOTA

CITY           SKY/WX    TMP DP  RH WIND       PRES   REMARKS
RAPID CTY ARPT SUNNY     64  29  26 N8        30.00F
PIERRE         CLOUDY    61  47  59 NW12      29.93F
CUSTER         SUNNY     55  24  30 W13G18    30.05F
ELLSWORTH AFB  SUNNY     63  30  28 N14       29.99F
PHILIP         CLOUDY    64  37  36 NW14G21   29.98F
PINE RIDGE     SUNNY     59  39  47 CALM      30.04F
SPEARFISH      FAIR      57  28  33 NW17G23   30.02F
WINNER         CLOUDY    58  50  75 NW9       29.99S
$$

SDZ004>011-016>023-039-040-222000-
NORTHEAST SOUTH DAKOTA

CITY           SKY/WX    TMP DP  RH WIND       PRES   REMARKS
ABERDEEN       LGT RAIN  57  52  83 NW9       29.87F
WATERTOWN      PTSUNNY   66  51  58 SW21      29.90F
SISSETON         N/A     68  51  54 SW17G23   29.87F
$$

SDZ017-020-022-023-036>040-048>070-222000-
SOUTHEAST SOUTH DAKOTA

CITY           SKY/WX    TMP DP  RH WIND       PRES   REMARKS
SIOUX FALLS    PTSUNNY   70  52  52 S21G29    29.94F
HURON          RAIN      55  53  93 NW13      29.91R FOG
CHAMBERLAIN    CLOUDY    55  52  90 W9        29.97S
MITCHELL       LGT RAIN  60  52  74 W15       29.95R
YANKTON        CLOUDY    70  54  56 S8        29.94F
$$

ABBREVIATIONS USED IN REMARKS
   TC - TEMPERATURE IN CELSIUS
  WCI - WIND CHILL INDEX
   HX - HEAT INDEX
  VSB - VISIBILITY




USA.gov is the U.S. government's official web portal to all federal, state and local government web resources and services.